{"data":{"norad_id":42070,"epoch":"2026-09-18T23:54:38.769984Z","epoch_age_seconds":155754,"freshness":"FRESH","line1":"1 42070U 17014A   26261.99628206 -.00000061  00000+0  00000+0 0  9991","line2":"2 42070   0.0177 166.8902 0002068   8.7464  71.0473  1.00271618 34866","mean_motion":1.00271618,"eccentricity":0.0002068,"inclination_deg":0.0177,"raan_deg":166.8902,"arg_perigee_deg":8.7464,"mean_anomaly_deg":71.0473,"bstar":0,"rev_number":3486,"period_min":1436.0992958147,"perigee_km":35777.922101167,"apogee_km":35795.361453669,"semimajor_km":42164.778777418,"source":"CELESTRAK","updated_at":"2026-09-20T09:00:35.251720Z"}}